Location: Bli��� Lhota
(48.7570°N, 14.0120°E)
Time: 04:22:25
(UTC+00:00)

H-2A R/B - Pass Details

Date: 18 September 2020
Orbit: 734 x 836 km, 98.2° (Epoch: 29 October)

Event Time Altitude Azimuth Distance (km) Brightness Sun altitude
Rises 17:33:53 0° 150° (SSE) 3,163 4.8 -4.8°
Reaches altitude 10° 17:36:11 10° 145° (SE) 2,252 4.0 -5.2°
Maximum altitude 17:40:59 53° 70° (ENE) 922 2.2 -6.0°
Drops below altitude 10° 17:45:55 10° 354° (N) 2,318 4.7 -6.8°
Sets 17:48:18 0° 350° (N) 3,265 5.5 -7.2°
